Time,TemperatureF,DewpointF,PressureIn,WindDirection,WindDirectionDegrees,WindSpeedMPH,WindSpeedGustMPH,Humidity,HourlyPrecipIn,Conditions,Clouds,dailyrainin,SoftwareType,DateUTC
2013-03-19 00:00:00,31.5,31.0,29.82,WSW,251,0.0,0.0,98,0.00,,,0.18,Wunderground v.1.15,2013-03-19 04:00:00,
2013-03-19 00:10:00,31.6,31.1,29.83,WSW,250,0.0,0.0,98,0.00,,,0.00,Wunderground v.1.15,2013-03-19 04:10:00,
2013-03-19 00:20:00,31.6,31.1,29.82,WSW,250,0.0,0.0,98,0.00,,,0.00,Wunderground v.1.15,2013-03-19 04:20:00,
2013-03-19 00:30:00,31.6,31.1,29.81,WSW,251,0.0,0.0,98,0.00,,,0.00,Wunderground v.1.15,2013-03-19 04:30:00,
2013-03-19 00:40:00,31.6,31.1,29.81,WSW,250,0.0,0.0,98,0.00,,,0.00,Wunderground v.1.15,2013-03-19 04:40:00,
2013-03-19 00:50:00,31.6,31.1,29.82,WSW,250,0.0,0.0,98,0.00,,,0.00,Wunderground v.1.15,2013-03-19 04:50:00,
2013-03-19 01:00:00,31.6,31.1,29.81,WSW,251,0.0,0.0,98,0.00,,,0.00,Wunderground v.1.15,2013-03-19 05:00:00,
2013-03-19 01:10:00,31.7,31.2,29.81,WSW,251,0.0,0.0,98,0.00,,,0.00,Wunderground v.1.15,2013-03-19 05:10:00,
2013-03-19 01:20:00,31.7,31.2,29.80,WSW,250,0.0,0.0,98,0.00,,,0.00,Wunderground v.1.15,2013-03-19 05:20:00,
2013-03-19 01:30:00,31.6,31.1,29.80,WSW,251,0.0,1.0,98,0.00,,,0.00,Wunderground v.1.15,2013-03-19 05:30:00,
2013-03-19 01:40:00,31.7,31.2,29.80,WSW,250,0.0,0.0,98,0.00,,,0.00,Wunderground v.1.15,2013-03-19 05:40:00,
2013-03-19 01:50:00,31.8,31.3,29.78,WSW,250,0.0,0.0,98,0.00,,,0.00,Wunderground v.1.15,2013-03-19 05:50:00,
2013-03-19 02:00:00,32.0,31.5,29.78,WSW,250,0.0,0.0,98,0.00,,,0.00,Wunderground v.1.15,2013-03-19 06:00:00,
2013-03-19 02:10:00,32.0,31.5,29.78,WSW,250,0.0,0.0,98,0.00,,,0.00,Wunderground v.1.15,2013-03-19 06:10:00,
2013-03-19 02:20:00,32.0,31.5,29.78,WSW,251,0.0,0.0,98,0.00,,,0.00,Wunderground v.1.15,2013-03-19 06:20:00,
2013-03-19 02:30:00,31.9,31.4,29.77,WSW,250,0.0,0.0,98,0.00,,,0.00,Wunderground v.1.15,2013-03-19 06:30:00,
2013-03-19 02:40:00,31.8,31.3,29.78,WSW,250,0.0,0.0,98,0.00,,,0.00,Wunderground v.1.15,2013-03-19 06:40:00,
2013-03-19 02:50:00,31.8,31.3,29.77,WSW,251,0.0,0.0,98,0.00,,,0.00,Wunderground v.1.15,2013-03-19 06:50:00,
2013-03-19 03:00:00,31.8,31.3,29.77,WSW,251,0.0,0.0,98,0.00,,,0.00,Wunderground v.1.15,2013-03-19 07:00:00,
2013-03-19 03:10:00,31.9,31.4,29.77,WSW,251,0.0,0.0,98,0.00,,,0.00,Wunderground v.1.15,2013-03-19 07:10:00,
2013-03-19 03:20:00,31.9,31.4,29.77,WSW,251,0.0,0.0,98,0.00,,,0.00,Wunderground v.1.15,2013-03-19 07:20:00,
2013-03-19 03:30:00,31.9,31.4,29.76,WSW,251,0.0,0.0,98,0.00,,,0.00,Wunderground v.1.15,2013-03-19 07:30:00,
2013-03-19 03:40:00,31.8,31.3,29.76,WSW,251,0.0,0.0,98,0.00,,,0.00,Wunderground v.1.15,2013-03-19 07:40:00,
2013-03-19 03:50:00,31.8,31.3,29.76,WSW,250,0.0,0.0,98,0.00,,,0.00,Wunderground v.1.15,2013-03-19 07:50:00,
2013-03-19 04:10:00,31.8,31.3,29.75,WSW,251,0.0,1.0,98,0.00,,,0.00,Wunderground v.1.15,2013-03-19 08:10:00,
2013-03-19 04:20:00,31.8,31.3,29.74,WSW,251,0.0,0.0,98,0.00,,,0.00,Wunderground v.1.15,2013-03-19 08:20:00,
2013-03-19 04:30:00,31.8,31.3,29.74,WSW,251,0.0,0.0,98,0.00,,,0.00,Wunderground v.1.15,2013-03-19 08:30:00,
2013-03-19 04:40:00,31.9,31.4,29.74,WSW,251,0.0,0.0,98,0.00,,,0.00,Wunderground v.1.15,2013-03-19 08:40:00,
2013-03-19 04:50:00,32.0,31.5,29.74,WSW,251,0.0,0.0,98,0.00,,,0.00,Wunderground v.1.15,2013-03-19 08:50:00,
2013-03-19 05:00:00,32.1,31.6,29.75,WSW,251,0.0,0.0,98,0.00,,,0.00,Wunderground v.1.15,2013-03-19 09:00:00,
2013-03-19 05:10:00,32.2,31.7,29.75,WSW,251,0.0,0.0,98,0.00,,,0.00,Wunderground v.1.15,2013-03-19 09:10:00,
2013-03-19 05:20:00,32.2,31.7,29.75,WSW,250,0.0,1.0,98,0.00,,,0.00,Wunderground v.1.15,2013-03-19 09:20:00,
2013-03-19 05:30:00,32.5,32.0,29.76,WSW,250,0.0,0.0,98,0.00,,,0.00,Wunderground v.1.15,2013-03-19 09:30:00,
2013-03-19 05:40:00,33.4,32.9,29.76,WSW,254,0.0,0.0,98,0.00,,,0.01,Wunderground v.1.15,2013-03-19 09:40:00,
2013-03-19 05:50:00,33.6,33.1,29.76,WSW,254,0.0,0.0,98,0.00,,,0.01,Wunderground v.1.15,2013-03-19 09:50:00,
2013-03-19 06:00:00,33.8,33.3,29.76,West,259,1.0,5.0,98,0.00,,,0.01,Wunderground v.1.15,2013-03-19 10:00:00,
2013-03-19 06:10:00,36.7,36.4,29.76,NNW,343,3.0,5.0,99,0.00,,,0.01,Wunderground v.1.15,2013-03-19 10:10:00,
2013-03-19 06:20:00,39.1,38.8,29.76,NNW,333,7.0,12.0,99,0.00,,,0.01,Wunderground v.1.15,2013-03-19 10:20:00,
2013-03-19 06:30:00,40.1,39.8,29.78,WNW,301,10.0,13.0,99,0.00,,,0.01,Wunderground v.1.15,2013-03-19 10:30:00,
2013-03-19 06:40:00,39.8,39.5,29.79,WNW,299,11.0,13.0,99,0.00,,,0.01,Wunderground v.1.15,2013-03-19 10:40:00,
2013-03-19 06:50:00,39.4,39.1,29.80,NW,318,10.0,10.0,99,0.00,,,0.01,Wunderground v.1.15,2013-03-19 10:50:00,
2013-03-19 07:00:00,38.7,38.4,29.81,WNW,303,9.0,12.0,99,0.00,,,0.01,Wunderground v.1.15,2013-03-19 11:00:00,
2013-03-19 07:10:00,38.3,37.8,29.81,WNW,300,9.0,13.0,98,0.00,,,0.01,Wunderground v.1.15,2013-03-19 11:10:00,
2013-03-19 07:20:00,37.7,37.2,29.81,NW,310,11.0,11.0,98,0.00,,,0.01,Wunderground v.1.15,2013-03-19 11:20:00,
2013-03-19 07:30:00,37.6,36.8,29.82,WNW,300,11.0,17.0,97,0.00,,,0.01,Wunderground v.1.15,2013-03-19 11:30:00,
2013-03-19 07:40:00,37.7,36.4,29.82,WNW,295,10.0,10.0,95,0.00,,,0.01,Wunderground v.1.15,2013-03-19 11:40:00,
2013-03-19 07:50:00,37.7,35.6,29.82,WNW,287,8.0,8.0,92,0.00,,,0.01,Wunderground v.1.15,2013-03-19 11:50:00,
2013-03-19 08:00:00,37.4,34.7,29.82,NNW,338,9.0,13.0,90,0.00,,,0.01,Wunderground v.1.15,2013-03-19 12:00:00,
2013-03-19 08:10:00,37.2,33.7,29.82,NNW,337,8.0,14.0,87,0.00,,,0.01,Wunderground v.1.15,2013-03-19 12:10:00,
2013-03-19 08:20:00,37.1,33.3,29.83,North,355,8.0,14.0,86,0.00,,,0.01,Wunderground v.1.15,2013-03-19 12:20:00,
2013-03-19 08:30:00,37.0,32.9,29.85,WNW,292,7.0,9.0,85,0.00,,,0.01,Wunderground v.1.15,2013-03-19 12:30:00,
2013-03-19 08:40:00,37.1,33.0,29.85,North,10,6.0,6.0,85,0.00,,,0.01,Wunderground v.1.15,2013-03-19 12:40:00,
2013-03-19 08:50:00,37.2,32.8,29.86,NNW,328,7.0,9.0,84,0.00,,,0.01,Wunderground v.1.15,2013-03-19 12:50:00,
2013-03-19 09:00:00,37.3,32.6,29.86,NNW,329,8.0,13.0,83,0.00,,,0.01,Wunderground v.1.15,2013-03-19 13:00:00,
2013-03-19 09:10:00,37.4,32.7,29.87,NNW,332,7.0,7.0,83,0.00,,,0.01,Wunderground v.1.15,2013-03-19 13:10:00,
2013-03-19 09:20:00,37.5,32.5,29.88,NNW,331,5.0,5.0,82,0.00,,,0.01,Wunderground v.1.15,2013-03-19 13:20:00,
2013-03-19 09:30:00,37.7,32.7,29.88,West,281,5.0,5.0,82,0.00,,,0.01,Wunderground v.1.15,2013-03-19 13:30:00,
2013-03-19 09:40:00,38.0,32.1,29.88,SSE,167,4.0,5.0,79,0.00,,,0.01,Wunderground v.1.15,2013-03-19 13:40:00,
2013-03-19 09:50:00,38.4,31.8,29.88,NW,306,3.0,5.0,77,0.00,,,0.01,Wunderground v.1.15,2013-03-19 13:50:00,
2013-03-19 10:00:00,38.8,31.9,29.87,WSW,250,5.0,5.0,76,0.00,,,0.01,Wunderground v.1.15,2013-03-19 14:00:00,
2013-03-19 10:10:00,38.9,31.0,29.87,West,279,6.0,6.0,73,0.00,,,0.01,Wunderground v.1.15,2013-03-19 14:10:00,
2013-03-19 10:20:00,39.6,31.3,29.87,West,264,4.0,8.0,72,0.00,,,0.01,Wunderground v.1.15,2013-03-19 14:20:00,
2013-03-19 10:30:00,40.0,31.7,29.87,SE,141,5.0,5.0,72,0.00,,,0.01,Wunderground v.1.15,2013-03-19 14:30:00,
2013-03-19 10:40:00,40.7,31.3,29.86,West,259,5.0,5.0,69,0.00,,,0.01,Wunderground v.1.15,2013-03-19 14:40:00,
2013-03-19 10:50:00,41.3,31.5,29.86,NW,321,4.0,5.0,68,0.00,,,0.01,Wunderground v.1.15,2013-03-19 14:50:00,
2013-03-19 11:00:00,42.0,31.8,29.86,West,272,5.0,5.0,67,0.00,,,0.01,Wunderground v.1.15,2013-03-19 15:00:00,
2013-03-19 11:10:00,42.7,31.7,29.87,WNW,283,4.0,6.0,65,0.00,,,0.01,Wunderground v.1.15,2013-03-19 15:10:00,
2013-03-19 11:20:00,43.6,32.2,29.87,WNW,287,4.0,5.0,64,0.00,,,0.01,Wunderground v.1.15,2013-03-19 15:20:00,
2013-03-19 11:30:00,43.7,32.7,29.86,SSW,210,5.0,5.0,65,0.00,,,0.01,Wunderground v.1.15,2013-03-19 15:30:00,
2013-03-19 11:40:00,44.5,31.9,29.86,WNW,287,5.0,8.0,61,0.00,,,0.01,Wunderground v.1.15,2013-03-19 15:40:00,
2013-03-19 11:50:00,44.7,32.1,29.86,WNW,286,5.0,8.0,61,0.00,,,0.01,Wunderground v.1.15,2013-03-19 15:50:00,
2013-03-19 12:00:00,45.1,31.6,29.86,SW,230,6.0,6.0,59,0.00,,,0.01,Wunderground v.1.15,2013-03-19 16:00:00,
2013-03-19 12:10:00,45.4,31.0,29.86,NNW,338,6.0,10.0,57,0.00,,,0.01,Wunderground v.1.15,2013-03-19 16:10:00,
2013-03-19 12:20:00,46.4,31.1,29.85,WNW,290,5.0,9.0,55,0.00,,,0.01,Wunderground v.1.15,2013-03-19 16:20:00,
2013-03-19 12:30:00,46.4,28.8,29.85,NNW,331,7.0,7.0,50,0.00,,,0.01,Wunderground v.1.15,2013-03-19 16:30:00,
2013-03-19 12:40:00,47.2,29.0,29.85,WNW,282,6.0,9.0,49,0.00,,,0.01,Wunderground v.1.15,2013-03-19 16:40:00,
2013-03-19 12:50:00,47.6,29.4,29.84,West,274,7.0,9.0,49,0.00,,,0.01,Wunderground v.1.15,2013-03-19 16:50:00,
2013-03-19 13:00:00,48.3,30.0,29.84,West,277,6.0,6.0,49,0.00,,,0.01,Wunderground v.1.15,2013-03-19 17:00:00,
2013-03-19 13:10:00,49.7,30.8,29.83,WNW,303,5.0,8.0,48,0.00,,,0.01,Wunderground v.1.15,2013-03-19 17:10:00,
2013-03-19 13:20:00,49.0,28.0,29.83,WNW,298,7.0,7.0,44,0.00,,,0.01,Wunderground v.1.15,2013-03-19 17:20:00,
2013-03-19 13:30:00,49.2,28.2,29.83,WNW,294,7.0,8.0,44,0.00,,,0.01,Wunderground v.1.15,2013-03-19 17:30:00,
2013-03-19 13:40:00,49.4,28.9,29.82,WSW,257,6.0,6.0,45,0.00,,,0.01,Wunderground v.1.15,2013-03-19 17:40:00,
2013-03-19 13:50:00,49.7,27.5,29.82,WNW,292,7.0,7.0,42,0.00,,,0.01,Wunderground v.1.15,2013-03-19 17:50:00,
2013-03-19 14:00:00,50.6,29.5,29.82,WSW,244,6.0,6.0,44,0.00,,,0.01,Wunderground v.1.15,2013-03-19 18:00:00,
2013-03-19 14:10:00,51.0,29.8,29.81,West,277,6.0,7.0,44,0.00,,,0.01,Wunderground v.1.15,2013-03-19 18:10:00,
2013-03-19 14:20:00,51.6,28.6,29.81,WSW,238,5.0,12.0,41,0.00,,,0.01,Wunderground v.1.15,2013-03-19 18:20:00,
2013-03-19 14:30:00,51.9,28.9,29.80,NNW,331,7.0,8.0,41,0.00,,,0.01,Wunderground v.1.15,2013-03-19 18:30:00,
2013-03-19 14:40:00,52.5,29.5,29.78,WSW,255,6.0,6.0,41,0.00,,,0.01,Wunderground v.1.15,2013-03-19 18:40:00,
2013-03-19 14:50:00,52.9,28.6,29.79,WNW,284,7.0,7.0,39,0.00,,,0.01,Wunderground v.1.15,2013-03-19 18:50:00,
2013-03-19 15:00:00,53.3,29.6,29.80,WNW,286,7.0,7.0,40,0.00,,,0.01,Wunderground v.1.15,2013-03-19 19:00:00,
2013-03-19 15:10:00,53.1,28.1,29.79,SSW,204,8.0,8.0,38,0.00,,,0.01,Wunderground v.1.15,2013-03-19 19:10:00,
2013-03-19 15:20:00,53.1,29.4,29.80,WNW,282,7.0,8.0,40,0.00,,,0.01,Wunderground v.1.15,2013-03-19 19:20:00,
2013-03-19 15:30:00,52.8,28.5,29.80,West,271,8.0,11.0,39,0.00,,,0.01,Wunderground v.1.15,2013-03-19 19:30:00,
2013-03-19 15:40:00,52.9,29.2,29.79,NNW,344,7.0,7.0,40,0.00,,,0.01,Wunderground v.1.15,2013-03-19 19:40:00,
2013-03-19 15:50:00,53.3,28.3,29.81,NNW,335,6.0,6.0,38,0.00,,,0.01,Wunderground v.1.15,2013-03-19 19:50:00,
2013-03-19 16:00:00,53.4,27.1,29.80,WNW,294,6.0,6.0,36,0.00,,,0.01,Wunderground v.1.15,2013-03-19 20:00:00,
2013-03-19 16:10:00,52.9,26.6,29.80,WSW,244,7.0,8.0,36,0.00,,,0.01,Wunderground v.1.15,2013-03-19 20:10:00,
2013-03-19 16:20:00,52.7,25.8,29.79,NNW,340,7.0,7.0,35,0.00,,,0.01,Wunderground v.1.15,2013-03-19 20:20:00,
2013-03-19 16:30:00,52.3,25.4,29.80,NNW,331,8.0,8.0,35,0.00,,,0.01,Wunderground v.1.15,2013-03-19 20:30:00,
2013-03-19 16:40:00,52.3,25.4,29.80,NNW,333,7.0,7.0,35,0.00,,,0.01,Wunderground v.1.15,2013-03-19 20:40:00,
2013-03-19 16:50:00,51.5,24.0,29.81,NNE,21,9.0,9.0,34,0.00,,,0.01,Wunderground v.1.15,2013-03-19 20:50:00,
2013-03-19 17:00:00,51.4,23.9,29.82,NNW,330,7.0,7.0,34,0.00,,,0.01,Wunderground v.1.15,2013-03-19 21:00:00,
2013-03-19 17:10:00,51.4,21.0,29.83,NNE,22,7.0,10.0,30,0.00,,,0.01,Wunderground v.1.15,2013-03-19 21:10:00,
2013-03-19 17:20:00,50.6,18.6,29.82,NNW,329,9.0,11.0,28,0.00,,,0.01,Wunderground v.1.15,2013-03-19 21:20:00,
2013-03-19 17:30:00,50.6,19.5,29.83,SW,216,6.0,6.0,29,0.00,,,0.01,Wunderground v.1.15,2013-03-19 21:30:00,
2013-03-19 17:40:00,50.4,18.5,29.84,NW,326,7.0,9.0,28,0.00,,,0.01,Wunderground v.1.15,2013-03-19 21:40:00,
2013-03-19 17:50:00,49.9,14.5,29.84,West,259,9.0,11.0,24,0.00,,,0.01,Wunderground v.1.15,2013-03-19 21:50:00,
2013-03-19 18:00:00,49.2,12.9,29.85,NNW,344,7.0,7.0,23,0.00,,,0.01,Wunderground v.1.15,2013-03-19 22:00:00,
2013-03-19 18:10:00,48.6,11.4,29.84,SW,227,9.0,9.0,22,0.00,,,0.01,Wunderground v.1.15,2013-03-19 22:10:00,
2013-03-19 18:20:00,47.7,8.5,29.85,NNW,339,11.0,12.0,20,0.00,,,0.01,Wunderground v.1.15,2013-03-19 22:20:00,
2013-03-19 18:30:00,46.9,10.0,29.85,NNW,338,10.0,10.0,22,0.00,,,0.01,Wunderground v.1.15,2013-03-19 22:30:00,
2013-03-19 18:40:00,46.5,9.6,29.85,NW,324,8.0,8.0,22,0.00,,,0.01,Wunderground v.1.15,2013-03-19 22:40:00,
2013-03-19 18:50:00,46.1,10.3,29.85,NW,304,9.0,9.0,23,0.00,,,0.01,Wunderground v.1.15,2013-03-19 22:50:00,
2013-03-19 19:00:00,45.6,9.9,29.85,NNW,330,6.0,11.0,23,0.00,,,0.01,Wunderground v.1.15,2013-03-19 23:00:00,
2013-03-19 19:10:00,45.0,10.3,29.86,WNW,292,7.0,7.0,24,0.00,,,0.01,Wunderground v.1.15,2013-03-19 23:10:00,
2013-03-19 19:20:00,44.6,10.0,29.86,WSW,244,7.0,17.0,24,0.00,,,0.01,Wunderground v.1.15,2013-03-19 23:20:00,
2013-03-19 19:30:00,44.1,11.3,29.87,NW,325,5.0,5.0,26,0.00,,,0.01,Wunderground v.1.15,2013-03-19 23:30:00,
2013-03-19 19:40:00,43.7,11.0,29.88,East,82,4.0,4.0,26,0.00,,,0.01,Wunderground v.1.15,2013-03-19 23:40:00,
2013-03-19 19:50:00,43.2,10.6,29.88,WNW,300,3.0,6.0,26,0.00,,,0.01,Wunderground v.1.15,2013-03-19 23:50:00,
2013-03-19 20:00:00,42.8,11.1,29.89,West,265,4.0,8.0,27,0.00,,,0.01,Wunderground v.1.15,2013-03-20 00:00:00,
2013-03-19 20:10:00,42.5,10.0,29.89,North,350,6.0,10.0,26,0.00,,,0.01,Wunderground v.1.15,2013-03-20 00:10:00,
2013-03-19 20:20:00,42.2,9.7,29.88,West,270,5.0,7.0,26,0.00,,,0.01,Wunderground v.1.15,2013-03-20 00:20:00,
2013-03-19 20:30:00,41.9,9.5,29.89,NNW,336,7.0,7.0,26,0.00,,,0.01,Wunderground v.1.15,2013-03-20 00:30:00,
2013-03-19 20:40:00,41.5,8.2,29.90,NW,312,5.0,8.0,25,0.00,,,0.01,Wunderground v.1.15,2013-03-20 00:40:00,
2013-03-19 20:50:00,41.3,8.9,29.90,NNW,341,5.0,5.0,26,0.00,,,0.01,Wunderground v.1.15,2013-03-20 00:50:00,
2013-03-19 21:00:00,41.1,7.9,29.91,South,184,8.0,8.0,25,0.00,,,0.01,Wunderground v.1.15,2013-03-20 01:00:00,
2013-03-19 21:10:00,40.8,7.6,29.91,NW,319,5.0,5.0,25,0.00,,,0.01,Wunderground v.1.15,2013-03-20 01:10:00,
2013-03-19 21:20:00,40.6,8.3,29.91,NNE,21,5.0,6.0,26,0.00,,,0.01,Wunderground v.1.15,2013-03-20 01:20:00,
2013-03-19 21:30:00,40.2,8.8,29.92,NW,320,3.0,7.0,27,0.00,,,0.01,Wunderground v.1.15,2013-03-20 01:30:00,
2013-03-19 21:40:00,39.9,8.6,29.92,NW,321,7.0,9.0,27,0.00,,,0.01,Wunderground v.1.15,2013-03-20 01:40:00,
2013-03-19 21:50:00,39.7,7.6,29.92,NW,323,6.0,6.0,26,0.00,,,0.01,Wunderground v.1.15,2013-03-20 01:50:00,
2013-03-19 22:00:00,39.5,8.2,29.93,West,260,3.0,5.0,27,0.00,,,0.01,Wunderground v.1.15,2013-03-20 02:00:00,
2013-03-19 22:10:00,39.1,7.9,29.93,NNW,327,4.0,6.0,27,0.00,,,0.01,Wunderground v.1.15,2013-03-20 02:10:00,
2013-03-19 22:20:00,38.9,7.7,29.93,NW,326,6.0,6.0,27,0.00,,,0.01,Wunderground v.1.15,2013-03-20 02:20:00,
2013-03-19 22:30:00,38.8,7.6,29.92,NNW,342,6.0,6.0,27,0.00,,,0.01,Wunderground v.1.15,2013-03-20 02:30:00,
2013-03-19 22:40:00,38.5,7.4,29.92,West,280,4.0,4.0,27,0.00,,,0.01,Wunderground v.1.15,2013-03-20 02:40:00,
2013-03-19 22:50:00,38.3,8.0,29.93,South,182,5.0,5.0,28,0.00,,,0.01,Wunderground v.1.15,2013-03-20 02:50:00,
2013-03-19 23:00:00,38.1,7.8,29.93,NNW,345,4.0,4.0,28,0.00,,,0.01,Wunderground v.1.15,2013-03-20 03:00:00,
2013-03-19 23:10:00,37.8,6.8,29.93,NNW,334,4.0,11.0,27,0.00,,,0.01,Wunderground v.1.15,2013-03-20 03:10:00,
2013-03-19 23:20:00,37.7,7.5,29.93,NW,315,5.0,5.0,28,0.00,,,0.01,Wunderground v.1.15,2013-03-20 03:20:00,
2013-03-19 23:30:00,37.5,8.1,29.93,NNW,334,4.0,4.0,29,0.00,,,0.01,Wunderground v.1.15,2013-03-20 03:30:00,
2013-03-19 23:40:00,37.2,7.0,29.94,West,269,5.0,5.0,28,0.00,,,0.01,Wunderground v.1.15,2013-03-20 03:40:00,
2013-03-19 23:50:00,36.9,8.3,29.94,WNW,301,2.0,6.0,30,0.00,,,0.01,Wunderground v.1.15,2013-03-20 03:50:00,